User: anonymous   Login
Location: Unspecified
(0.0000°N, 0.0000°E)
Time: 07:48:47
(UTC+00:00)
Language:

Cosmos 2361 - Orbit

View from above orbital plane
View from above orbital plane
View from above satellite
View from above satellite

Ground track
Ground track

The orbit data is extracted from the following two-line orbital elements,

1 25590U 98076A   18110.94402301 +.00000037 +00000-0 +23203-4 0  9999
2 25590 082.9339 248.5074 0032892 108.7236 009.2367 13.72947882967907
Epoch (UTC): 20 April 2018 22:39:23
Eccentricity: 0.0032892
inclination: 82.9339°
perigee height: 965 km
apogee height: 1013 km
right ascension of ascending node: 248.5074°
argument of perigee: 108.7236°
revolutions per day: 13.72947882
mean anomaly at epoch: 9.2367°
orbit number at epoch: 96790

The dashed part of the orbit path shows where the satellite is in the earth's shadow,  

DLR